This demonstration page uses our WeatherBlox Daily Observations layout. Learn more.

Left ArrowRight Arrow

Hourly Observations for May 1, 2016

Temp ( °F °C ) Dew Point ( °F °C ) Humidity (%) Winds ( mph kmh ) Pressure ( in mb ) Visibility ( mi km ) Precip ( " mm )
12:53 am 00:53 Cloudy with Light Rain 62 16.7 60 15.6 93 93 VRB 3 6 29.90 1013 9 14 0.01 0.25
1:53 am 01:53 Cloudy with Light Rain 62 16.7 60 15.6 93 93 N N/A 29.91 1013 6 10 0.01 0.25
2:14 am 02:14 Cloudy with Light Rain 61 16.1 60 15.6 97 97 N N/A 29.91 1013 4 6 N/A
2:44 am 02:44 Cloudy with Light Rain 62 16.7 60 15.6 93 93 N N/A 29.91 1013 6 10 0.02 0.51
2:53 am 02:53 Cloudy 61 16.1 60 15.6 97 97 N N/A 29.90 1013 8 13 0.02 0.51
3:16 am 03:16 Mostly Cloudy with Mist and Fog 62 16.7 61 16.1 96 96 N N/A 29.88 1012 6 10 N/A
3:26 am 03:26 Cloudy 62 16.7 61 16.1 96 96 S 3 6 29.88 1012 8 13 N/A
3:53 am 03:53 Mostly Cloudy with Light Rain 61 16.1 60 15.6 97 97 SSW 3 6 29.89 1012 6 10 N/A
4:00 am 04:00 Mostly Cloudy with Light Rain 61 16.1 60 15.6 97 97 SSW 5 7 29.88 1012 6 10 N/A
4:53 am 04:53 Mostly Clear 61 16.1 60 15.6 97 97 N N/A 29.88 1012 8 13 N/A
5:53 am 05:53 Mostly Cloudy with Mist and Fog 60 15.6 60 15.6 100 100 WSW 3 6 29.91 1013 4 6 N/A
6:05 am 06:05 Cloudy 61 16.1 60 15.6 97 97 N N/A 29.91 1013 7 11 N/A
6:53 am 06:53 Partly Cloudy with Mist and Fog 60 15.6 59 15 96 96 N N/A 29.91 1013 2 3 N/A
7:03 am 07:03 Mostly Cloudy with Light Rain 60 15.6 59 15 96 96 N N/A 29.91 1013 2 3 0.01 0.25
7:10 am 07:10 Mostly Cloudy with Light Rain 60 15.6 60 15.6 100 100 N N/A 29.91 1013 2 2 0.01 0.25
7:13 am 07:13 Mostly Cloudy with Light Rain 61 16.1 60 15.6 97 97 N N/A 29.91 1013 2 3 0.01 0.25
7:21 am 07:21 Cloudy with Mist and Fog 61 16.1 60 15.6 97 97 N N/A 29.91 1013 4 6 0.01 0.25
7:48 am 07:48 Partly Cloudy with Mist and Fog 61 16 61 16 100 100 N N/A 29.91 1013 3 4 0.01 0.25
7:53 am 07:53 Partly Cloudy with Mist and Fog 61 16.1 60 15.6 97 97 N N/A 29.91 1013 3 4 0.01 0.25
8:02 am 08:02 Partly Cloudy with Mist and Fog 62 16.7 61 16.1 96 96 N N/A 29.91 1013 3 4 N/A
8:12 am 08:12 Mostly Cloudy with Mist and Fog 62 16.7 61 16.1 96 96 N N/A 29.94 1014 3 5 N/A
8:27 am 08:27 Cloudy with Mist and Fog 63 17.2 62 16.7 97 97 N N/A 29.94 1014 3 4 N/A
8:36 am 08:36 Cloudy with Mist and Fog 63 17.2 62 16.7 97 97 N N/A 29.94 1014 3 5 N/A
8:44 am 08:44 Cloudy with Mist and Fog 63 17.2 62 16.7 97 97 N N/A 29.94 1014 5 8 N/A
8:53 am 08:53 Mostly Cloudy with Mist and Fog 64 17.8 62 16.7 93 93 N N/A 29.93 1013 5 8 N/A
9:17 am 09:17 Mostly Sunny 66 18.9 63 17.2 90 90 N N/A 29.94 1014 8 13 N/A
9:53 am 09:53 Partly Cloudy 68 20 63 17.2 84 84 N N/A 29.93 1014 10 16 N/A
10:00 am 10:00 Mostly Cloudy 68 20 63 17.2 84 84 WSW 3 6 29.94 1014 10 16 N/A
10:19 am 10:19 Cloudy 67 19.4 63 17.2 87 87 W 3 6 29.94 1014 10 16 N/A
10:33 am 10:33 Mostly Cloudy 68 20 63 17.2 84 84 N N/A 29.94 1014 10 16 N/A
10:48 am 10:48 Partly Cloudy 70 21 63 17 78 78 VRB 3 6 29.94 1014 10 16 N/A
10:53 am 10:53 Partly Cloudy 70 21.1 63 17.2 79 79 SW 5 7 29.93 1014 10 16 N/A
11:10 am 11:10 Mostly Cloudy 70 21.1 62 16.7 76 76 W 3 6 29.94 1014 10 16 N/A
11:53 am 11:53 Partly Cloudy 73 22.8 62 16.7 69 69 SW 6 9 29.94 1014 10 16 N/A
12:53 pm 12:53 Mostly Sunny 75 23.9 61 16.1 62 62 VRB 5 7 29.93 1013 10 16 N/A
1:53 pm 13:53 Sunny 77 25 58 14.4 52 52 W 6 9 29.92 1013 10 16 N/A
2:53 pm 14:53 Mostly Cloudy 78 25.6 57 13.9 48 48 N N/A 29.91 1013 10 16 N/A
3:53 pm 15:53 Mostly Cloudy 78 25.6 59 15 52 52 WNW 9 15 29.89 1012 10 16 N/A
4:53 pm 16:53 Sunny 79 26.1 57 13.9 47 47 WNW 7 11 29.87 1012 10 16 N/A
5:53 pm 17:53 Mostly Sunny 77 25 60 15.6 56 56 N N/A 29.88 1012 10 16 N/A
6:53 pm 18:53 Partly Cloudy 77 25 57 13.9 50 50 N N/A 29.87 1011 10 16 N/A
7:08 pm 19:08 Mostly Cloudy with Nearby Thunderstorms 76 24.4 59 15 56 56 W 6 9 29.88 1012 10 16 N/A
7:44 pm 19:44 Mostly Cloudy with Light Thunderstorms 71 21.7 60 15.6 68 68 SSW 13 20 29.88 1012 5 8 0.01 0.25
7:53 pm 19:53 Cloudy with Light Thunderstorms 66 18.9 60 15.6 81 81 SSE 5 7 29.88 1012 2 3 0.04 1.02
8:01 pm 20:01 Cloudy with Light Thunderstorms 66 18.9 61 16.1 84 84 ESE 5 7 29.88 1012 10 16 N/A
8:53 pm 20:53 Cloudy with Light Thunderstorms 63 17.2 60 15.6 90 90 N 7 11 29.90 1012 8 13 0.11 2.79
9:05 pm 21:05 Cloudy with Light Rain 63 17.2 60 15.6 90 90 NNE 3 6 29.91 1013 10 16 N/A
9:53 pm 21:53 Clear 61 16.1 60 15.6 97 97 N N/A 29.87 1012 8 13 N/A
10:53 pm 22:53 Clear 62 16.7 60 15.6 93 93 N N/A 29.86 1011 10 16 N/A
11:53 pm 23:53 Mostly Clear 62 16.7 61 16.1 96 96 SSE 3 6 29.85 1011 9 14 N/A

Powered by AerisWeather